DECAYED

STARLINK-2335, 47878 (Decayed)

Orbit data source: Space-Track

STARLINK-2335, 47878 was a payload satellite owned by SpaceX/Seattle (US) in LEO that was launched on Sun, 14 Mar 2021 UTC via an FALCON 9 launch vehicle from the Air Force Eastern Test Range (AFETR). Payload-class satellites include a variety of spacecraft equipped with specific instruments for various scientific and technological missions. These include communications satellites like Starlink; space stations such as the ISS; scientific satellites like the Hubble; Earth observation satellites from companies like Planet Labs, Umbra, and HawkEye 360; GPS; miniature CubeSats for education and research; and military/defense satellites.

Not visible in the next 10 days
Identifier
47878, 2021-021U
Orbit
Decayed
Country
Flag of USUS
Related business
Manufacturer
SpaceX/Seattle
Mission
Decayed Commercial Communications
Bus & Motor
STARLINK, Unknown motor
Mass
260 kg wet, ~248 kg dry
Launch date (UTC)
2021-03-14 (5 years ago)
Launch vehicle
FALCON 9
Launch site
Air Force Eastern Test Range (AFETR)
Object type
Payload
Rocket body
Debris
Shape & HBR
Box + 1 Pan, 10.1 m
Radar Cross Section
13.562 m², Large (>1 m²)

Expand to show TLE details & history
Last TLE update: 1 year ago

TLE from 1 year ago
0 STARLINK-2335
1 47878U 21021U   25055.76717884  .19845140  12430-4  71120-3 0  9995
2 47878  53.0265 127.1078 0004535 231.2136 230.7975 16.44194757219326
Epoch: 2025-02-24T18:24Z
TLE epoch observation values (Epoch: 2025-02-24T18:24:44.251Z)
Latitude
51.55932°
Longitude
165.48325°
Altitude
162.65 km
Speed
7.814 km/s
True Right ascension
15h 46m 11s
True Declination
51° 22' 35"
Sunlit
Object was in full shadow at epoch
Visualization orbit readout
Latitude
Unknown
Longitude
Unknown
Altitude
Unknown
Speed
Unknown
Apparent Right ascension
Unknown
Apparent Declination
Unknown
Sunlit
N/A
Visualization observer readout
Local Sidereal Time
21:30:32
Azimuth
Unknown
Elevation
Unknown
Doppler factor
Unknown
Orbital elements
Apogee altitude
157.922 km
Perigee altitude
151.996 km
Semi-major axis
6,533.096 km
Eccentricity
0.00045
Inclination
53.0265°
RAAN
127.1078°
Arg. of periapsis
231.2136°
True anomaly
230.75724°
Mean anomaly
230.7975°
Eccentric anomaly
230.77737°
Mean motion
4.11022 °/min
Orbital period
87.59 mins
BSTAR
0.0007112
Loading maneuver chart data...
Computing Atmospheric mass density...

Documentation

Showing up to 5 results
|